x

9437540 - Garibaldi, Tillamook Bay, Or (tlbo3) Weather Station

9:54pm - Wed 30th Jul 2014 All times are PDT. -7 hours from GMT.

  • Wind
    22mph, 24mph gusts
  • Sea Temp 61°f
  • Air Temp 55°f
  • Sea Pressure 1019.6mb
  • 9437540 - Garibaldi, Tillamook Bay, Or
  • 9437540 - Garibaldi, Tillamook Bay, Or

More Historic Weather Station data

Upgrade to MSW Pro to gain access to the past 30 days of data for over 8000 Wavebouys and Weather Stations around the globe.

Join Pro

Comparision Forecast

View Surf forecast
   
Wed 07/30 9:54pm 22 24 mph 1019.6mb 61f 55f
9:48pm 22 24 mph 1019.6mb 61f 55f
9:42pm 20 23 mph 1019.5mb 61f 55f
9:36pm 18 22 mph 1019.7mb 61f 56f
9:30pm 16 21 mph 1019.7mb 61f 56f
9:24pm 17 22 mph 1019.6mb 61f 56f
9:18pm 20 25 mph 1019.6mb 61f 55f
9:12pm 21 22 mph 1019.6mb 61f 56f
9:06pm 21 23 mph 1019.5mb 61f 56f
9:00pm 20 23 mph 1019.5mb 61f 56f
8:54pm 21 23 mph 1019.5mb 60f 56f
8:48pm 21 23 mph 1019.4mb 60f 56f
8:42pm 18 21 mph 1019.3mb 60f 56f
8:36pm 20 22 mph 1019.4mb 60f 56f
8:30pm 22 24 mph 1019.3mb 59f 57f
8:24pm 18 21 mph 1019.3mb 59f 56f
8:18pm 21 23 mph 1019.2mb 58f 56f
8:12pm 21 25 mph 1019.2mb 58f 57f
8:06pm 23 28 mph 1019.2mb 58f 56f
8:00pm 22 26 mph 1019.2mb 58f 56f
7:54pm 25 30 mph 1019.2mb 58f 56f
7:48pm 26 30 mph 1019.1mb 57f 56f
7:42pm 28 32 mph 1019.1mb 57f 57f
7:36pm 29 31 mph 1019.1mb 57f 57f
7:30pm 28 33 mph 1019.1mb 57f 57f
7:24pm 29 32 mph 1018.9mb 56f 57f
7:18pm 30 33 mph 1018.9mb 56f 57f
7:12pm 29 36 mph 1019mb 55f 57f
7:06pm 29 38 mph 1018.9mb 55f 57f
7:00pm 31 39 mph 1018.7mb 54f 57f
6:54pm 32 36 mph 1018.6mb 54f 57f
6:48pm 33 37 mph 1018.5mb 53f 57f
6:42pm 30 39 mph 1018.5mb 53f 57f
6:36pm 31 39 mph 1018.5mb 53f 58f
6:30pm 33 39 mph 1018.5mb 52f 58f
6:24pm 30 37 mph 1018.6mb 52f 57f
6:18pm 33 40 mph 1018.5mb 51f 58f
6:12pm 30 38 mph 1018.6mb 51f 58f
6:06pm 28 36 mph 1018.6mb 51f 58f
6:00pm 32 37 mph 1018.7mb 50f 58f
5:54pm 29 37 mph 1018.7mb 50f 58f
5:48pm 29 34 mph 1018.8mb 50f 58f
5:42pm 28 34 mph 1018.7mb 50f 58f
5:36pm  -  mph 1018.8mb 49f -
5:30pm 29 34 mph 1018.8mb 49f 58f
5:24pm 28 31 mph 1018.8mb 49f 57f
5:18pm 29 33 mph 1018.9mb 49f 58f
5:12pm 25 34 mph 1018.9mb 49f 57f
5:06pm 25 37 mph 1018.8mb 49f 57f
5:00pm 26 36 mph 1018.8mb 49f 57f
4:54pm 25 36 mph 1018.7mb 49f 57f
4:48pm 28 34 mph 1018.8mb 49f 58f
4:42pm 26 33 mph 1018.7mb 49f 58f
4:36pm 24 30 mph 1018.8mb 49f 57f
4:30pm 28 31 mph 1018.9mb 49f 57f
4:24pm 26 34 mph 1018.8mb 49f 57f
4:18pm 28 31 mph 1018.8mb 49f 58f
4:12pm 28 33 mph 1018.8mb 49f 58f
4:06pm 25 30 mph 1018.7mb 49f 58f
4:00pm 25 32 mph 1018.8mb 49f 58f
3:54pm 26 32 mph 1018.8mb 49f 58f
3:48pm 29 33 mph 1018.8mb 49f 58f
3:42pm 28 33 mph 1018.9mb 49f 58f
3:36pm 26 34 mph 1019mb 49f 57f
3:30pm 26 30 mph 1019mb 49f 57f
3:24pm 26 29 mph 1019mb 49f 57f
3:18pm 25 30 mph 1019.1mb 49f 57f
3:12pm 28 31 mph 1019.1mb 49f 57f
3:06pm 25 30 mph 1019.2mb 49f 57f
3:00pm 26 30 mph 1019.3mb 49f 57f
2:54pm 29 32 mph 1019.3mb 49f 57f
2:48pm 25 29 mph 1019.4mb 49f 57f
2:42pm 25 29 mph 1019.4mb 49f 56f
2:36pm 24 31 mph 1019.4mb 49f 56f
2:30pm 26 30 mph 1019.5mb 49f 57f
2:24pm 26 32 mph 1019.5mb 50f 57f
2:18pm 29 33 mph 1019.6mb 50f 56f
2:12pm 28 31 mph 1019.7mb 50f 56f
2:06pm 26 32 mph 1019.8mb 50f 56f
2:00pm 28 31 mph 1019.8mb 50f 55f
1:54pm 29 32 mph 1019.9mb 50f 55f
1:48pm 26 30 mph 1020mb 50f 55f
1:42pm 26 30 mph 1020.1mb 50f 55f
1:36pm 24 29 mph 1020.1mb 50f 55f
1:30pm 24 28 mph 1020.2mb 50f 55f
1:24pm 24 28 mph 1020.2mb 50f 54f
1:18pm  -  mph 1020.2mb 51f -
1:12pm 22 26 mph 1020.2mb 51f 54f
1:06pm 25 29 mph 1020.3mb 51f 54f
1:00pm 24 26 mph 1020.2mb 51f 53f
12:54pm 24 26 mph 1020.2mb 51f 54f
12:48pm 24 25 mph 1020.2mb 52f 54f
12:42pm 23 25 mph 1020.4mb 52f 54f
12:36pm 23 25 mph 1020.4mb 52f 54f
12:30pm 23 24 mph 1020.4mb 53f 54f
12:24pm 23 25 mph 1020.4mb 55f 54f
12:18pm 23 24 mph 1020.4mb 56f 54f
12:12pm 21 24 mph 1020.4mb 56f 54f
12:06pm 22 24 mph 1020.5mb 58f 54f
12:00pm 20 24 mph 1020.6mb 58f 54f
11:54am 21 23 mph 1020.6mb 58f 54f
11:48am 22 25 mph 1020.7mb 58f 54f
11:42am 22 24 mph 1020.6mb 58f 54f
11:36am 21 24 mph 1020.7mb 58f 54f
11:30am  -  mph 1020.7mb 58f -
11:24am 22 25 mph 1020.7mb 58f 54f
11:18am 23 25 mph 1020.7mb 58f 54f
11:12am 22 24 mph 1020.9mb 58f 54f
11:06am  -  mph 1020.8mb 58f -
11:00am 23 26 mph 1020.8mb 59f 55f
10:54am 24 26 mph 1020.8mb 59f 55f
10:48am 22 24 mph 1020.8mb 59f 55f
10:42am 20 25 mph 1020.8mb 59f 55f
10:36am  -  mph 1020.8mb 59f -
10:30am 18 22 mph 1020.8mb 59f 55f
10:24am 18 21 mph 1020.8mb 60f 55f
10:18am 20 22 mph 1020.8mb 60f 55f
10:12am 20 22 mph 1020.8mb 60f 55f
10:06am 21 24 mph 1020.9mb 60f 55f
10:00am 21 23 mph 1020.9mb 60f 55f
9:54am  -  mph 1021mb 59f -
9:48am 21 24 mph 1021.1mb 58f 55f
9:42am 21 23 mph 1021.2mb 58f 55f
9:36am 21 23 mph 1021.2mb 58f 55f
9:30am 21 23 mph 1021.2mb 57f 55f
9:24am 20 22 mph 1021.3mb 57f 55f
9:18am 17 20 mph 1021.2mb 57f 54f
9:12am 17 18 mph 1021.3mb 56f 55f
9:06am  -  mph 1021.3mb 56f -
9:00am 15 18 mph 1021.3mb 56f 55f
8:54am 16 18 mph 1021.3mb 56f 55f
8:48am  -  mph 1021.3mb 56f -
8:42am 16 17 mph 1021.3mb 56f 55f
8:36am 17 18 mph 1021.3mb 57f 54f
8:30am 16 18 mph 1021.2mb 58f 55f
8:24am 15 17 mph 1021.2mb 59f 53f
8:18am 14 15 mph 1021.2mb 60f 53f
8:12am 14 15 mph 1021.1mb 60f 53f
8:06am 11 14 mph 1021.1mb 60f 53f
8:00am 13
mph
1021.1mb 60f 53f
7:54am 11 13 mph 1021.1mb 60f 53f
7:48am 13 14 mph 1021.1mb 59f 54f
7:42am 11 13 mph 1021.1mb 59f 54f
7:36am 10 11 mph 1021.1mb 58f 55f
7:30am 11
mph
1021.1mb 58f 54f
7:24am 11
mph
1021.1mb 57f 54f
7:18am 10 11 mph 1021.2mb 56f 55f
7:12am 10
mph
1021.2mb 56f 55f
7:06am 11
mph
1021.2mb 55f 54f
7:00am 11 13 mph 1021.3mb 54f 54f
6:54am 10 13 mph 1021.3mb 53f 53f
6:48am 11 13 mph 1021.2mb 54f 53f
6:42am 11 13 mph 1021.2mb 53f 54f
6:36am 10 11 mph 1021.2mb 53f 55f
6:30am 8 9 mph 1021.1mb 53f 55f
6:24am 7 9 mph 1021.1mb 53f 55f
6:18am 7 10 mph 1021.1mb 53f 54f
6:12am 9 10 mph 1021mb 53f 54f
6:06am 9 10 mph 1021mb 52f 54f
6:00am 10 11 mph 1021mb 52f 54f
5:54am 10 11 mph 1021mb 51f 54f
5:48am 10 13 mph 1020.9mb 51f 54f
5:42am 13 15 mph 1020.9mb 51f 54f
5:36am 15 16 mph 1020.8mb 51f 55f
5:30am 14 16 mph 1020.8mb 51f 54f
5:24am 15 17 mph 1020.8mb 51f 54f
5:18am 15 17 mph 1020.8mb 50f 54f
5:12am 17 18 mph 1020.8mb 49f 53f
5:06am 17 18 mph 1020.9mb 49f 54f
5:00am 18 20 mph 1020.9mb 49f 53f
4:54am 18
mph
1020.8mb 49f 53f
4:48am 17 20 mph 1020.8mb 49f 53f
4:42am 18 20 mph 1020.8mb 49f 53f
4:36am 16 17 mph 1020.8mb 49f 53f
4:30am 16 17 mph 1020.8mb 49f 53f
4:24am 16 17 mph 1020.9mb 49f 53f
4:18am 16 18 mph 1020.8mb 49f 53f
4:12am 17 20 mph 1020.8mb 49f 53f
4:06am 17 18 mph 1020.8mb 49f 53f
4:00am 18 20 mph 1020.8mb 49f 54f
3:54am 17 18 mph 1020.8mb 49f 53f
3:48am 16 20 mph 1020.8mb 49f 53f
3:42am 17 20 mph 1020.8mb 49f 53f
3:36am 17 20 mph 1020.8mb 49f 53f
3:30am 18 21 mph 1020.9mb 49f 53f
3:24am 18 20 mph 1020.8mb 49f 53f
3:18am 17 21 mph 1020.9mb 49f 53f
3:12am 18 21 mph 1020.8mb 49f 53f
3:06am 21 23 mph 1020.8mb 49f 53f
3:00am 20 22 mph 1020.9mb 49f 54f
2:54am 17 21 mph 1020.9mb 49f 54f
2:48am 14 21 mph 1020.9mb 49f 54f
2:42am 16 20 mph 1020.9mb 49f 54f
2:36am 17 21 mph 1020.9mb 49f 53f
2:30am 15 16 mph 1020.9mb 49f 54f
2:24am 14 15 mph 1020.8mb 49f 54f
2:18am 14 15 mph 1020.8mb 49f 54f
2:12am 14 15 mph 1020.8mb 49f 54f
2:06am 14 16 mph 1020.8mb 49f 54f
2:00am 14 16 mph 1020.7mb 50f 54f
1:54am 14 16 mph 1020.8mb 50f 54f
1:48am 14 17 mph 1020.9mb 50f 54f
1:42am 15 17 mph 1020.9mb 50f 54f
1:36am 15 20 mph 1020.8mb 50f 54f
1:30am 17 22 mph 1020.8mb 50f 54f
1:24am 18 20 mph 1020.8mb 50f 54f
1:18am 15 16 mph 1020.8mb 50f 54f
1:12am 16 17 mph 1020.8mb 51f 55f
1:06am 15 16 mph 1020.8mb 51f 55f
1:00am 14 17 mph 1020.8mb 52f 55f
12:54am 16 17 mph 1020.8mb 52f 55f
12:48am 16 17 mph 1020.8mb 53f 55f
12:42am 13 15 mph 1020.8mb 53f 55f
12:36am 13 14 mph 1020.8mb 54f 55f
12:30am 13 14 mph 1020.8mb 55f 56f
12:24am 13 15 mph 1020.8mb 55f 55f
12:18am 14 15 mph 1020.8mb 55f 56f
12:12am 13 15 mph 1020.8mb 55f 55f
12:06am 14 17 mph 1020.7mb 55f 55f
12:00am 15 17 mph 1020.7mb 56f 54f
Tue 07/29 11:54pm 16 18 mph 1020.8mb 56f 54f
11:48pm 17 20 mph 1020.8mb 56f 55f
11:42pm 17 18 mph 1020.8mb 56f 56f
11:36pm 16 20 mph 1020.7mb 56f 56f
11:30pm 14 18 mph 1020.8mb 57f 56f
11:24pm 14 17 mph 1020.8mb 57f 55f
11:18pm 15 17 mph 1020.8mb 57f 55f
11:12pm 13 16 mph 1020.8mb 58f 55f
11:06pm 16 18 mph 1020.8mb 58f 55f
11:00pm 15 18 mph 1020.7mb 58f 55f
10:54pm 16 20 mph 1020.7mb 59f 55f
10:48pm 16 20 mph 1020.7mb 59f 56f
10:42pm 15 17 mph 1020.8mb 59f 56f
10:36pm 16 18 mph 1020.8mb 60f 55f
10:30pm 18 20 mph 1020.8mb 60f 56f
10:24pm 17 18 mph 1020.8mb 60f 55f
10:18pm 17 20 mph 1020.8mb 60f 55f
10:12pm 17 18 mph 1020.9mb 61f 55f
10:06pm 16 18 mph 1020.8mb 61f 56f
10:00pm 17 18 mph 1020.8mb 61f 56f
9:54pm 17 20 mph 1020.7mb 61f 56f
9:48pm 20 21 mph 1020.7mb 61f 57f
9:42pm 17 22 mph 1020.7mb 61f 57f
9:36pm 18 22 mph 1020.7mb 61f 57f
9:30pm 22 24 mph 1020.6mb 61f 57f
9:24pm 17 24 mph 1020.6mb 61f 57f
9:18pm 21 24 mph 1020.4mb 61f 57f
9:12pm 22 25 mph 1020.4mb 61f 58f
9:06pm 21 29 mph 1020.3mb 61f 57f
9:00pm 21 24 mph 1020.3mb 61f 57f
8:54pm 22 28 mph 1020.2mb 61f 59f
8:48pm 21 26 mph 1020.2mb 61f 58f
8:42pm 21 28 mph 1020.1mb 61f 58f
8:36pm 22 26 mph 1020.1mb 61f 58f
8:30pm 23 29 mph 1020.2mb 61f 58f
8:24pm 24 30 mph 1020.1mb 61f 58f
8:18pm 25 31 mph 1020mb 60f 58f
8:12pm 26 31 mph 1020mb 60f 58f
8:06pm 28 33 mph 1020mb 60f 57f
8:00pm 25 31 mph 1019.9mb 60f 57f
7:54pm 28 33 mph 1020mb 59f 57f
7:48pm 25 32 mph 1019.9mb 58f 57f
7:42pm 28 30 mph 1019.9mb 58f 57f
7:36pm 24 30 mph 1019.9mb 58f 58f
7:30pm 24 31 mph 1019.9mb 57f 57f
7:24pm 25 30 mph 1020mb 57f 57f
7:18pm 25 32 mph 1019.9mb 57f 57f
7:12pm 29 32 mph 1020mb 57f 57f
7:06pm 26 33 mph 1020mb 57f 57f
7:00pm 24 36 mph 1020mb 57f 57f
6:54pm 26 36 mph 1020mb 56f 57f
6:48pm 30 33 mph 1020mb 56f 56f
6:42pm 29 36 mph 1019.9mb 55f 57f
6:36pm 26 33 mph 1020mb 55f 57f
6:30pm 30 34 mph 1019.9mb 54f 57f
6:24pm 28 31 mph 1019.8mb 54f 57f
6:18pm 28 33 mph 1019.9mb 53f 56f
6:12pm 30 34 mph 1019.8mb 53f 56f
6:06pm 29 32 mph 1019.8mb 52f 56f
6:00pm 29 34 mph 1019.8mb 52f 56f
5:54pm 29 34 mph 1019.7mb 52f 56f
5:48pm 30 36 mph 1019.9mb 51f 56f
5:42pm 30 36 mph 1019.9mb 51f 56f
5:36pm 29 36 mph 1019.9mb 50f 56f
5:30pm 30 37 mph 1019.9mb 50f 56f
5:24pm 31 34 mph 1020mb 50f 57f
5:18pm 31 37 mph 1019.9mb 50f 56f
5:12pm 32 41 mph 1020mb 49f 56f
5:06pm 33 40 mph 1020.1mb 49f 56f
5:00pm 31 38 mph 1020.1mb 49f 56f
4:54pm 32 37 mph 1019.9mb 49f 56f
4:48pm 30 37 mph 1020mb 49f 56f
4:42pm 31 38 mph 1020mb 49f 56f
4:36pm 29 33 mph 1020mb 49f 57f
4:30pm 29 38 mph 1020mb 49f 57f
4:24pm 29 37 mph 1020mb 49f 57f
4:18pm 30 38 mph 1019.9mb 49f 57f
4:12pm 29 34 mph 1020mb 49f 56f
4:06pm 29 32 mph 1019.9mb 49f 56f
4:00pm 28 34 mph 1020mb 49f 56f
3:54pm 28 34 mph 1020mb 49f 56f
3:48pm 26 33 mph 1020.1mb 49f 56f
3:42pm 29 32 mph 1020.1mb 49f 57f
3:36pm 28 36 mph 1020.1mb 49f 57f
3:30pm 29 38 mph 1020mb 49f 57f
3:24pm 31 34 mph 1020.1mb 49f 56f
3:18pm 29 34 mph 1020mb 49f 56f
3:12pm  -  mph 1020mb 49f -
3:06pm 28 32 mph 1020mb 49f 56f
3:00pm 28 34 mph 1020mb 49f 56f
2:54pm 28 32 mph 1019.9mb 49f 56f
2:48pm 30 36 mph 1019.9mb 49f 56f
2:42pm 30 36 mph 1019.8mb 49f 56f
2:36pm 29 36 mph 1019.9mb 49f 55f
2:30pm 31 34 mph 1019.9mb 49f 55f
2:24pm 31 34 mph 1019.9mb 49f 55f
2:18pm 30 33 mph 1020mb 49f 55f
2:12pm 28 33 mph 1020mb 49f 55f
2:06pm  -  mph 1020.1mb 49f -
2:00pm 29 32 mph 1020.2mb 49f 55f
1:54pm 28 32 mph 1020.1mb 52f 55f
1:48pm  -  mph 1020.1mb 52f -
1:42pm 26 32 mph 1020.2mb 53f 54f
1:36pm  -  mph 1020.2mb 49f -
1:30pm 28 32 mph 1020.3mb 49f 54f
1:24pm 26 30 mph 1020.3mb 49f 54f
1:18pm 25 30 mph 1020.2mb 52f 54f
1:12pm 26 30 mph 1020.2mb 52f 54f
1:06pm 28 30 mph 1020.4mb 49f 53f
1:00pm 25 28 mph 1020.4mb 50f 53f
12:54pm 24 26 mph 1020.5mb 51f 53f
12:48pm 23 25 mph 1020.5mb 51f 53f
12:42pm 22 25 mph 1020.6mb 52f 53f
12:36pm  -  mph 1020.5mb 53f -
12:30pm 22 25 mph 1020.5mb 54f 53f
12:24pm 23 25 mph 1020.6mb 55f 53f
12:18pm 22 24 mph 1020.6mb 56f 52f
12:12pm 23 24 mph 1020.6mb 56f 52f
12:06pm 23 25 mph 1020.7mb 57f 52f
12:00pm 22 23 mph 1020.7mb 58f 52f
11:54am 22 26 mph 1020.7mb 58f 52f
11:48am 23 25 mph 1020.7mb 58f 53f
11:42am 22 25 mph 1020.8mb 58f 53f
11:36am 23 25 mph 1020.9mb 58f 53f
11:30am 23 25 mph 1021mb 58f 53f
11:24am 22 23 mph 1021.1mb 58f 53f
11:18am  -  mph 1021.2mb 58f -
11:12am 22 23 mph 1021.2mb 58f 53f
11:06am 22 24 mph 1021.3mb 58f 53f
11:00am 21 23 mph 1021.3mb 58f 53f
10:54am 21 23 mph 1021.3mb 58f 53f
10:48am  -  mph 1021.3mb 58f -
10:42am 18 23 mph 1021.3mb 59f 53f
10:36am 20 22 mph 1021.3mb 59f 52f
10:30am 20 22 mph 1021.3mb 59f 52f
10:24am 21 22 mph 1021.3mb 59f 52f
10:18am 18 21 mph 1021.3mb 60f 52f
10:12am 17 20 mph 1021.3mb 60f 53f
10:06am 16 20 mph 1021.4mb 60f 53f
10:00am 18 21 mph 1021.4mb 61f 53f
9:54am 18 20 mph 1021.4mb 61f 53f
9:48am 16 18 mph 1021.4mb 61f 52f
9:42am 17 20 mph 1021.4mb 61f 52f
9:36am 17 18 mph 1021.4mb 61f 52f
9:30am 16 17 mph 1021.5mb 62f 52f
9:24am 17
mph
1021.5mb 62f 52f
9:18am 15 16 mph 1021.5mb 62f 52f
9:12am  -  mph 1021.5mb 62f -
9:06am 14 16 mph 1021.6mb 62f 52f
9:00am 14 16 mph 1021.6mb 61f 52f
8:54am 15
mph
1021.6mb 61f 52f
8:48am 15 17 mph 1021.6mb 61f 52f
8:42am 16 18 mph 1021.5mb 60f 52f
8:36am 17 18 mph 1021.5mb 60f 52f
8:30am 17 18 mph 1021.5mb 60f 51f
8:24am 14
mph
1021.5mb 60f 52f
8:18am 14
mph
1021.5mb 60f 52f
8:12am 14 15 mph 1021.6mb 61f 53f
8:06am 14 16 mph 1021.6mb 61f 53f
8:00am 14 15 mph 1021.6mb 61f 53f
7:54am 13 14 mph 1021.5mb 61f 53f
7:48am 10 14 mph 1021.5mb 61f 53f
7:42am 11 13 mph 1021.6mb 61f 53f
7:36am 10 13 mph 1021.5mb 60f 53f
7:30am  -  mph 1021.5mb 60f -
7:24am 7 11 mph 1021.5mb 60f 53f
7:18am 7 10 mph 1021.4mb 60f 53f
7:12am 7 11 mph 1021.4mb 59f 53f
7:06am 7 9 mph 1021.4mb 59f 53f
7:00am 7 8 mph 1021.3mb 59f 52f
6:54am 7 8 mph 1021.3mb 58f 52f
6:48am 6 7 mph 1021.2mb 57f 52f
6:42am 3 5 mph 1021.2mb 57f 52f
6:36am 3 5 mph 1021.1mb 56f 52f
6:30am 1 2 mph 1021.1mb 55f 52f
6:24am 1 3 mph 1021.1mb 53f 52f
6:18am 2
mph
1021.1mb 54f 52f
6:12am 3 6 mph 1021.1mb 54f 51f
6:06am 6 8 mph 1021.1mb 54f 52f
6:00am 9 11 mph 1021.1mb 53f 52f
5:54am 9 11 mph 1021.1mb 53f 52f
5:48am 7 11 mph 1021mb 53f 52f
5:42am 8 11 mph 1021mb 53f 52f
5:36am 10 14 mph 1021mb 53f 52f
5:30am 13 14 mph 1020.9mb 53f 52f
5:24am 11 15 mph 1020.9mb 53f 52f
5:18am 13 16 mph 1020.9mb 53f 52f
5:12am 14 16 mph 1020.8mb 52f 52f
5:06am 16 20 mph 1020.8mb 51f 52f
5:00am 16 18 mph 1020.8mb 51f 52f
4:54am 16 20 mph 1020.7mb 51f 52f
4:48am 15 17 mph 1020.8mb 51f 52f
4:42am 14 16 mph 1020.7mb 50f 52f
4:36am 9 13 mph 1020.7mb 50f 52f
4:30am 13 15 mph 1020.7mb 49f 52f
4:24am 14 15 mph 1020.7mb 49f 51f
4:18am 13 17 mph 1020.7mb 49f 51f
4:12am 14 15 mph 1020.6mb 49f 51f
4:06am 10 11 mph 1020.6mb 49f 52f
4:00am 10 13 mph 1020.5mb 49f 52f
3:54am 10 13 mph 1020.4mb 49f 52f
3:48am 13
mph
1020.4mb 49f 52f
3:42am 11 15 mph 1020.4mb 49f 52f
3:36am 11 17 mph 1020.4mb 49f 53f
3:30am 14 18 mph 1020.4mb 49f 52f
3:24am 15 18 mph 1020.4mb 49f 52f
3:18am 14 20 mph 1020.4mb 49f 52f
3:12am 16 21 mph 1020.4mb 49f 52f
3:06am 17 21 mph 1020.4mb 49f 52f
3:00am 18 22 mph 1020.3mb 49f 52f
2:54am 20 23 mph 1020.3mb 49f 52f
2:48am 18 21 mph 1020.3mb 49f 52f
2:42am 17 23 mph 1020.3mb 49f 52f
2:36am 18 22 mph 1020.2mb 49f 53f
2:30am 20 22 mph 1020.2mb 49f 52f
2:24am 20 22 mph 1020.2mb 49f 52f
2:18am 20 21 mph 1020.2mb 49f 52f
2:12am 21 22 mph 1020.2mb 49f 52f
2:06am 16 20 mph 1020.2mb 49f 53f
2:00am 16 18 mph 1020.3mb 49f 52f
1:54am 16 20 mph 1020.3mb 49f 53f
1:48am 14 21 mph 1020.3mb 49f 53f
1:42am 17 20 mph 1020.3mb 49f 53f
1:36am 16 20 mph 1020.3mb 49f 53f
1:30am 15 16 mph 1020.3mb 49f 53f
1:24am 15 17 mph 1020.3mb 50f 54f
1:18am 14 17 mph 1020.2mb 50f 54f
1:12am 15 17 mph 1020.2mb 50f 54f
1:06am 14 18 mph 1020.2mb 50f 53f
1:00am 17 18 mph 1020.2mb 50f 53f
12:54am 16 18 mph 1020.3mb 50f 53f
12:48am 15 17 mph 1020.3mb 51f 53f
12:42am 17 20 mph 1020.3mb 51f 54f
12:36am 17 21 mph 1020.2mb 51f 54f
12:30am 15 18 mph 1020.1mb 51f 54f
12:24am 14 17 mph 1020.2mb 51f 54f
12:18am 16 20 mph 1020.2mb 52f 54f
12:12am 15 18 mph 1020.1mb 52f 54f
12:06am 15 17 mph 1020.1mb 53f 53f
12:00am 16 18 mph 1020mb 54f 53f
Mon 07/28 11:54pm 16 20 mph 1020mb 54f 54f
11:48pm 18 22 mph 1020mb 55f 53f
11:42pm 17 20 mph 1020mb 55f 53f
11:36pm  -  mph 1020mb 56f -
11:30pm 15 20 mph 1020mb 56f 53f
11:24pm 16 20 mph 1020mb 56f 53f
11:18pm 18 20 mph 1020mb 56f 53f
11:12pm 18 21 mph 1020mb 57f 53f
11:06pm 18 21 mph 1020mb 57f 53f
11:00pm 21 23 mph 1020mb 57f 53f
10:54pm 20 22 mph 1020.1mb 57f 53f
10:48pm 20 22 mph 1020.1mb 57f 53f
10:42pm 20 22 mph 1020mb 58f 53f
10:36pm 18 21 mph 1020.1mb 58f 52f
10:30pm 20 21 mph 1020mb 58f 53f
10:24pm 20 22 mph 1020mb 58f 53f
10:18pm 18 20 mph 1020mb 59f 53f
10:12pm 17 20 mph 1020mb 59f 53f
10:06pm 17 20 mph 1019.9mb 60f 54f
10:00pm 15 17 mph 1019.9mb 60f 53f
9:54pm 14 17 mph 1019.8mb 61f 53f
9:48pm 15 17 mph 1019.8mb 61f 53f
9:42pm 16 18 mph 1019.7mb 61f 52f
9:36pm 17 20 mph 1019.7mb 61f 53f
9:30pm 18 21 mph 1019.6mb 61f 53f
9:24pm 18 21 mph 1019.5mb 61f 53f
9:18pm 18 22 mph 1019.4mb - 52f
9:12pm 21 24 mph 1019.3mb 61f 52f
9:06pm 22 23 mph 1019.1mb 61f 52f
9:00pm 22 25 mph 1019.1mb 61f 52f
8:54pm 23 29 mph 1019mb 61f 53f
8:48pm 24 28 mph 1019mb 61f 53f
8:42pm 25 28 mph 1018.9mb 61f 53f
8:36pm 25 28 mph 1018.9mb 61f 53f
8:30pm 25 28 mph 1019mb 61f 53f
8:24pm 24 28 mph 1019mb 61f 53f
8:18pm 22 24 mph 1019mb 62f 53f
8:12pm 23 25 mph 1019mb 62f 53f
8:06pm 23 29 mph 1018.9mb 62f 53f
8:00pm 23 25 mph 1018.9mb 62f 53f
7:54pm 24 28 mph 1018.8mb 62f 53f
7:48pm 26 29 mph 1018.8mb 62f 53f
7:42pm 24 30 mph 1018.7mb 61f 53f
7:36pm 26 31 mph 1018.6mb 61f 53f
7:30pm 26 30 mph 1018.7mb 61f 53f
7:24pm 25 29 mph 1018.6mb 60f 53f
7:18pm 26 32 mph 1018.6mb 60f 54f
7:12pm 28 31 mph 1018.6mb 59f 53f
7:06pm 26 29 mph 1018.6mb 59f 53f
7:00pm 25 29 mph 1018.6mb 59f 53f
6:54pm 26 29 mph 1018.6mb 59f 53f
6:48pm 28 29 mph 1018.6mb 59f 53f
6:42pm 26 30 mph 1018.7mb 58f 53f
6:36pm 28 31 mph 1018.7mb 58f 53f
6:30pm 29 31 mph 1018.7mb 58f 54f
6:24pm 28 31 mph 1018.6mb 57f 53f
6:18pm 28 30 mph 1018.6mb 57f 54f
6:12pm 29 30 mph 1018.6mb 56f 54f
6:06pm 29 31 mph 1018.6mb 56f 53f
6:00pm 28 30 mph 1018.6mb 56f 54f
5:54pm 29 32 mph 1018.6mb 55f 54f
5:48pm 28 31 mph 1018.6mb 55f 54f
5:42pm 26 31 mph 1018.6mb 55f 54f
5:36pm 28 29 mph 1018.7mb 55f 54f
5:30pm 25 30 mph 1018.8mb 54f 54f
5:24pm 26 29 mph 1018.8mb 53f 54f
5:18pm 29 31 mph 1018.8mb 53f 54f
5:12pm 29 31 mph 1018.7mb 52f 54f
5:06pm  -  mph 1018.7mb 51f -
5:00pm 28 30 mph 1018.7mb 50f 54f
4:54pm 28 30 mph 1018.7mb 50f 54f
4:48pm 25 30 mph 1018.8mb 50f 54f
4:42pm 25 29 mph 1018.8mb 50f 54f
4:36pm 28 30 mph 1018.9mb 50f 54f
4:30pm 28 30 mph 1018.9mb 50f 54f
4:24pm 26 31 mph 1018.9mb 49f 54f
4:18pm 26 30 mph 1019mb 49f 54f
4:12pm 26 30 mph 1019mb 49f 54f
4:06pm 28 31 mph 1019.1mb 49f 54f
4:00pm 26 30 mph 1019.1mb 49f 54f
3:54pm 28 30 mph 1019.1mb 49f 55f
3:48pm 26 30 mph 1019.1mb 49f 55f
3:42pm 29 31 mph 1019.2mb 49f 55f
3:36pm  -  mph 1019.2mb 49f -
3:30pm 28 30 mph 1019.3mb 49f 55f
3:24pm 29 30 mph 1019.4mb 49f 55f
3:18pm 28 31 mph 1019.4mb 49f 55f
3:12pm 28 30 mph 1019.4mb 49f 55f
3:06pm 28 29 mph 1019.4mb 49f 55f
3:00pm 26 29 mph 1019.5mb 49f 55f
2:54pm 26 29 mph 1019.5mb 49f 55f
2:48pm  -  mph 1019.5mb 49f -
2:42pm 26 29 mph 1019.6mb 49f 55f
2:36pm 26 29 mph 1019.6mb 49f 55f
2:30pm 28 29 mph 1019.6mb 49f 55f
2:24pm 28 29 mph 1019.6mb 49f 54f
2:18pm 24 26 mph 1019.6mb 49f 54f
2:12pm 25 28 mph 1019.6mb 50f 54f
2:06pm 24 25 mph 1019.6mb 50f 54f
2:00pm 24 26 mph 1019.6mb 50f 54f
1:54pm 24 26 mph 1019.7mb 50f 54f
1:48pm 25 26 mph 1019.7mb 50f 54f
1:42pm 23 26 mph 1019.7mb 50f 54f
1:36pm 24 26 mph 1019.7mb 50f 54f
1:30pm 24 25 mph 1019.7mb 50f 54f
1:24pm 24 26 mph 1019.6mb 50f 54f
1:18pm 25 26 mph 1019.6mb 50f 54f
1:12pm 24 26 mph 1019.6mb 50f 54f
1:06pm 25 28 mph 1019.7mb 50f 54f
1:00pm  -  mph 1019.7mb 50f -
12:54pm 24 26 mph 1019.7mb 50f 53f
12:48pm 22 24 mph 1019.7mb 50f 53f
12:42pm 22 24 mph 1019.8mb 51f 53f
12:36pm 23 24 mph 1019.8mb 51f 53f
12:30pm 23 26 mph 1019.8mb 52f 53f
12:24pm 24 25 mph 1019.8mb 52f 53f
12:18pm 23 25 mph 1019.9mb 53f 53f
12:12pm  -  mph 1019.9mb 54f -
12:06pm 22 23 mph 1019.9mb 55f 52f
12:00pm 21 22 mph 1019.9mb 55f 52f
11:54am 20 22 mph 1019.9mb 56f 52f
11:48am 20 21 mph 1019.9mb 57f 52f
11:42am 17 18 mph 1020mb 58f 52f
11:36am 16 17 mph 1020mb 59f 52f
11:30am 17
mph
1020mb 59f 52f
11:24am 15 16 mph 1019.9mb 60f 52f
11:18am 15 16 mph 1019.9mb 60f 52f
11:12am 15 17 mph 1019.9mb 60f 52f
11:06am 16 17 mph 1019.8mb 60f 52f
11:00am 16 18 mph 1019.8mb 60f 52f
10:54am 17 18 mph 1019.8mb 60f 52f
10:48am 18 20 mph 1019.8mb 60f 52f
10:42am 18 20 mph 1019.8mb 60f 53f
10:36am 16 18 mph 1019.8mb 60f 52f
10:30am 15 16 mph 1019.9mb 61f 52f
10:24am 14 15 mph 1020mb 61f 52f
10:18am 13 14 mph 1019.9mb 61f 52f
10:12am 11
mph
1020mb 61f 52f
10:06am 10 11 mph 1020mb 61f 52f
10:00am 11
mph
1020mb 61f 52f
9:54am 11 13 mph 1019.9mb 62f 53f
9:48am  -  mph 1020mb 62f -
9:42am 10 13 mph 1020.1mb 62f 53f
9:36am 11 14 mph 1020.1mb 62f 53f
9:30am 14
mph
1020.1mb 62f 53f
9:24am 14
mph
1020.1mb 62f 53f
9:18am 13 14 mph 1020.2mb 62f 53f
9:12am  -  mph 1020.2mb 62f -
9:06am 10
mph
1020.2mb 62f 54f
9:00am 8 9 mph 1020.3mb 62f 54f
8:54am 8 9 mph 1020.3mb 62f 54f
8:48am 9 10 mph 1020.3mb 63f 52f
8:42am 7 9 mph 1020.3mb 63f 53f
8:36am 5 7 mph 1020.2mb 63f 53f
8:30am 7 8 mph 1020.2mb 62f 53f
8:24am 2 5 mph 1020.1mb 61f 54f
8:18am 2 3 mph 1020.1mb 60f 53f
8:12am 3 5 mph 1020.1mb 60f 53f
8:06am 3 5 mph 1020mb 59f 53f
8:00am 5 7 mph 1020mb 59f 53f
7:54am  -  mph 1020mb 59f -
7:48am 2 3 mph 1020mb 59f 53f
7:42am  -  2 mph 1020mb 61f 54f
7:36am 2 3 mph 1020mb 62f 54f
7:30am 2
mph
1019.9mb 62f 54f
7:24am 1 2 mph 1019.9mb 62f 54f
7:18am 2
mph
1019.9mb 62f 54f
7:12am  -  1 mph 1019.9mb 63f 54f
7:06am  -  2 mph 1019.9mb 62f 54f
7:00am 1 3 mph 1019.9mb 62f 54f
6:54am 1 2 mph 1019.9mb 62f 54f
6:48am 1 2 mph 1019.8mb 62f 54f
6:42am  -  1 mph 1019.8mb 62f 54f
6:36am  -  3 mph 1019.7mb 62f 53f
6:30am 1 2 mph 1019.7mb 61f 54f
6:24am  -  1 mph 1019.7mb 61f 54f
6:18am  -  1 mph 1019.7mb 61f 54f
6:12am  -  1 mph 1019.7mb 60f 53f
6:06am  -  mph 1019.7mb 59f -
6:00am  -  3 mph 1019.6mb 58f 54f
5:54am 1 5 mph 1019.5mb 57f 54f
5:48am 2 3 mph 1019.5mb 55f 54f
5:42am 2 5 mph 1019.5mb 55f 54f
5:36am 3 5 mph 1019.5mb 55f 54f
5:30am 2 3 mph 1019.5mb 56f 53f
5:24am  -  3 mph 1019.5mb 57f 53f
5:18am  -  1 mph 1019.5mb 57f 54f
5:12am  -  2 mph 1019.5mb 56f 54f
5:06am 1 5 mph 1019.5mb 56f 54f
5:00am 5 6 mph 1019.5mb 55f 53f
4:54am 5 10 mph 1019.5mb 55f 55f
4:48am 8 14 mph 1019.5mb 55f 55f
4:42am 10 13 mph 1019.4mb 55f 55f
4:36am 10 13 mph 1019.4mb 54f 53f
4:30am 9 11 mph 1019.4mb 53f 52f
4:24am 11 13 mph 1019.3mb 53f 54f
4:18am 11 13 mph 1019.3mb 53f 53f
4:12am 10 13 mph 1019.3mb 52f 53f
4:06am 13 15 mph 1019.3mb 52f 53f
4:00am 11 13 mph 1019.3mb 51f 53f
3:54am 11 16 mph 1019.2mb 51f 53f
3:48am 15
mph
1019.3mb 51f 53f
3:42am 11
mph
1019.2mb 51f 52f
3:36am 7 8 mph 1019.2mb 50f 53f
3:30am 7 8 mph 1019.2mb 50f 53f
3:24am 6 8 mph 1019.1mb 50f 53f
3:18am 6 9 mph 1019.2mb 50f 53f
3:12am 8 9 mph 1019.2mb 51f 53f
3:06am 9 13 mph 1019.2mb 51f 54f
3:00am 13
mph
1019.2mb 51f 55f
2:54am 13 14 mph 1019.2mb 50f 55f
2:48am 11 13 mph 1019.2mb 50f 55f
2:42am 11 13 mph 1019.1mb 50f 55f
2:36am 11 14 mph 1019.1mb 50f 55f
2:30am 13 15 mph 1019.2mb 50f 55f
2:24am 14 16 mph 1019.2mb 50f 55f
2:18am 14 16 mph 1019.2mb 50f 55f
2:12am 13 14 mph 1019.2mb 50f 55f
2:06am 13 14 mph 1019.3mb 50f 56f
2:00am 14 15 mph 1019.2mb 50f 56f
1:54am 13 15 mph 1019.2mb 50f 56f
1:48am 11 15 mph 1019.2mb 51f 56f
1:42am 9 13 mph 1019.3mb 51f 56f
1:36am 8 11 mph 1019.4mb 51f 56f
1:30am 11 13 mph 1019.3mb 51f 55f
1:24am 11 14 mph 1019.3mb 51f 56f
1:18am 13 15 mph 1019.3mb 51f 56f
1:12am 14 15 mph 1019.4mb 51f 56f
1:06am 13 14 mph 1019.5mb 51f 56f
1:00am 14 16 mph 1019.5mb 51f 56f
12:54am 13 16 mph 1019.5mb 51f 56f
12:48am 14 16 mph 1019.5mb 51f 56f
12:42am 14 16 mph 1019.6mb 51f 56f
12:36am 15 17 mph 1019.5mb 52f 56f
12:30am 14 20 mph 1019.6mb 52f 56f
12:24am 14 17 mph 1019.5mb 52f 56f
12:18am 16 18 mph 1019.5mb 52f 56f
12:12am 15 17 mph 1019.5mb 52f 56f
12:06am 15 16 mph 1019.5mb 52f 56f
12:00am 13 16 mph 1019.5mb 53f 56f
Sun 07/27 11:54pm 15 17 mph 1019.5mb 53f 56f
11:48pm 17 20 mph 1019.4mb 53f 56f
11:42pm 17 21 mph 1019.4mb 53f 56f
11:36pm 16 22 mph 1019.3mb 54f 56f
11:30pm 16 20 mph 1019.3mb 55f 55f
11:24pm 16 20 mph 1019.4mb 56f 55f
11:18pm 17 20 mph 1019.4mb 56f 55f
11:12pm 18 21 mph 1019.4mb 57f 56f
11:06pm 17 21 mph 1019.3mb 57f 56f
11:00pm 17 20 mph 1019.3mb 58f 56f
10:54pm 21 23 mph 1019.3mb 58f 56f
10:48pm 18 23 mph 1019.3mb 58f 56f
10:42pm 22 25 mph 1019.2mb 58f 56f
10:36pm 23 25 mph 1019.2mb 58f 56f
10:30pm 22 24 mph 1019.2mb 59f 56f
10:24pm 21 23 mph 1019.2mb 59f 56f
10:18pm 23 24 mph 1019.2mb 59f 57f
10:12pm 21 25 mph 1019.3mb 59f 57f
10:06pm 22 26 mph 1019.2mb 59f 57f
10:00pm 23 26 mph 1019.2mb 60f 56f
9:54pm 23 29 mph 1019.1mb 60f 56f
9:48pm 24 25 mph 1019mb 60f 56f
9:42pm 24 26 mph 1019mb 61f 56f
9:36pm 24 28 mph 1019mb 61f 56f
9:30pm 22 26 mph 1018.9mb 62f 57f
9:24pm 22 28 mph 1018.9mb 62f 57f
9:18pm 25 29 mph 1018.9mb 63f 57f
9:12pm 28 30 mph 1018.8mb 63f 57f
9:06pm 28 29 mph 1018.7mb 63f 57f
9:00pm 28 31 mph 1018.7mb 64f 57f
8:54pm 26 30 mph 1018.7mb 64f 57f
8:48pm 26 32 mph 1018.7mb 64f 57f
8:42pm 29 32 mph 1018.6mb 64f 58f
8:36pm 28 30 mph 1018.6mb 64f 58f
8:30pm 28 31 mph 1018.6mb 64f 58f
8:24pm 26 31 mph 1018.6mb 64f 58f
8:18pm 28 32 mph 1018.5mb 64f 58f
8:12pm 30 32 mph 1018.4mb 64f 58f
8:06pm 30 32 mph 1018.5mb 64f 58f
8:00pm 30 33 mph 1018.5mb 64f 58f
7:54pm 30 36 mph 1018.4mb 64f 58f
7:48pm 28 32 mph 1018.4mb 64f 58f
7:42pm 29 33 mph 1018.5mb 64f 58f
7:36pm 31 37 mph 1018.4mb 64f 59f
7:30pm 32 36 mph 1018.4mb 64f 59f
7:24pm 30 38 mph 1018.3mb 64f 59f
7:18pm 32 37 mph 1018.3mb 64f 59f
7:12pm 33 37 mph 1018.2mb 64f 59f
7:06pm 30 36 mph 1018.3mb 63f 59f
7:00pm 33 39 mph 1018.3mb 63f 59f
6:54pm  -  mph 1018.3mb 63f -
6:48pm 30 37 mph 1018.3mb 62f 59f
6:42pm 31 38 mph 1018.4mb 62f 59f
6:36pm 30 34 mph 1018.4mb 62f 60f
6:30pm 28 37 mph 1018.3mb 62f 60f
6:24pm 29 37 mph 1018.3mb 62f 60f
6:18pm 31 38 mph 1018.3mb 61f 60f
6:12pm 34 38 mph 1018.2mb 61f 60f
6:06pm 31 37 mph 1018.2mb 61f 60f
6:00pm 31 37 mph 1018.2mb 60f 60f
5:54pm 31 34 mph 1018.3mb 60f 60f
5:48pm 28 37 mph 1018.2mb 60f 60f
5:42pm 29 37 mph 1018.2mb 59f 61f
5:36pm 26 33 mph 1018.2mb 59f 61f
5:30pm 26 34 mph 1018.2mb 58f 60f
5:24pm 29 39 mph 1018.3mb 58f 61f
5:18pm 26 32 mph 1018.2mb 57f 61f
5:12pm 24 34 mph 1018.3mb 56f 61f
5:06pm 26 34 mph 1018.3mb 56f 61f
5:00pm 25 37 mph 1018.3mb 55f 61f
4:54pm 29 36 mph 1018.1mb 55f 60f
4:48pm 29 33 mph 1018.1mb 55f 60f
4:42pm 30 34 mph 1018mb 54f 60f
4:36pm 26 33 mph 1018.1mb 54f 60f
4:30pm 29 33 mph 1018.2mb 53f 60f
4:24pm 26 32 mph 1018.2mb 53f 61f
4:18pm 26 32 mph 1018.3mb 53f 61f
4:12pm 26 34 mph 1018.3mb 52f 60f
4:06pm 30 37 mph 1018.4mb 52f 61f
4:00pm 26 33 mph 1018.3mb 52f 60f
3:54pm 28 33 mph 1018.3mb 52f 60f
3:48pm 29 34 mph 1018.2mb 52f 60f
3:42pm 25 32 mph 1018.2mb 51f 61f
3:36pm 25 33 mph 1018.2mb 51f 60f
3:30pm 24 30 mph 1018.3mb 51f 61f
3:24pm 24 31 mph 1018.2mb 51f 61f
3:18pm 25 32 mph 1018.4mb 51f 60f
3:12pm 24 33 mph 1018.6mb 51f 61f
3:06pm 23 31 mph 1018.5mb 51f 60f
3:00pm 23 30 mph 1018.5mb 51f 60f
2:54pm 22 30 mph 1018.6mb 51f 60f
2:48pm 26 29 mph 1018.4mb 51f 60f
2:42pm 25 30 mph 1018.5mb 51f 60f
2:36pm 24 29 mph 1018.5mb 51f 60f
2:30pm 23 32 mph 1018.6mb 51f 60f
2:24pm 23 28 mph 1018.6mb 51f 61f
2:18pm 23 29 mph 1018.7mb 52f 61f
2:12pm 24 30 mph 1018.7mb 52f 59f
2:06pm 24 28 mph 1018.7mb 52f 59f
2:00pm 24 28 mph 1018.7mb 52f 59f
1:54pm 24 29 mph 1018.8mb 52f 59f
1:48pm 24 29 mph 1018.7mb 52f 59f
1:42pm 22 26 mph 1018.8mb 53f 59f
1:36pm 23 26 mph 1018.8mb 53f 59f
1:30pm 23 26 mph 1018.8mb 53f 59f
1:24pm 23 28 mph 1018.9mb 53f 59f
1:18pm 23 26 mph 1019mb 53f 59f
1:12pm 22 24 mph 1019mb 53f 59f
1:06pm 23 28 mph 1019mb 53f 59f
1:00pm 22 26 mph 1019mb 53f 59f
12:54pm 23 25 mph 1019mb 53f 58f
12:48pm 22 23 mph 1018.9mb 53f 58f
12:42pm 21 24 mph 1018.9mb 53f 58f
12:36pm 22 24 mph 1019mb 53f 58f
12:30pm  -  mph 1019mb 53f -
12:24pm 22 24 mph 1019mb 53f 58f
12:18pm 21 23 mph 1019mb 53f 58f
12:12pm 22 25 mph 1019.2mb 53f 58f
12:06pm 20 22 mph 1019.1mb 53f 58f
12:00pm 20 22 mph 1019.2mb 53f 58f
11:54am 20 22 mph 1019.2mb 53f 58f
11:48am 20 22 mph 1019.3mb 54f 58f
11:42am 16 20 mph 1019.4mb 55f 58f
11:36am 20 21 mph 1019.5mb 55f 58f
11:30am 18 21 mph 1019.5mb 56f 58f
11:24am 20 22 mph 1019.6mb 56f 58f
11:18am 20 21 mph 1019.7mb 56f 57f
11:12am 20 22 mph 1019.7mb 57f 57f
11:06am 20 21 mph 1019.8mb 59f 57f
11:00am 18 21 mph 1019.8mb 60f 57f
10:54am 17 18 mph 1019.9mb 61f 56f
10:48am 17 20 mph 1019.9mb 61f 56f
10:42am 17 21 mph 1020mb 62f 56f
10:36am 18 21 mph 1019.9mb 63f 56f
10:30am 18 21 mph 1020mb 63f 56f
10:24am 17 20 mph 1020mb 63f 56f
10:18am 16 18 mph 1020mb 63f 56f
10:12am 15 18 mph 1020.1mb 63f 56f
10:06am 17 18 mph 1020.2mb 63f 56f
10:00am 15 18 mph 1020.3mb 63f 56f
9:54am 16 18 mph 1020.4mb 63f 56f
9:48am 16 18 mph 1020.5mb 63f 56f
9:42am 16 18 mph 1020.6mb 63f 56f
9:36am 15 16 mph 1020.6mb 63f 56f
9:30am 15 18 mph 1020.6mb 63f 57f
9:24am 16 17 mph 1020.6mb 63f 57f
9:18am 15 17 mph 1020.7mb 63f 56f
9:12am 14 15 mph 1020.7mb 63f 57f
9:06am 13 15 mph 1020.7mb 64f 57f
9:00am 13 15 mph 1020.7mb 64f 57f
8:54am 11 14 mph 1020.8mb 64f 57f
8:48am 11 14 mph 1020.8mb 64f 57f
8:42am 8 13 mph 1020.7mb 64f 57f
8:36am 7 9 mph 1020.8mb 64f 56f
8:30am 3 6 mph 1020.9mb 65f 56f
8:24am 5 6 mph 1020.9mb 64f 56f
8:18am 8 9 mph 1021.1mb 64f 56f
8:12am 8 10 mph 1021.1mb 64f 56f
8:06am 7 8 mph 1021.2mb 64f 58f
8:00am 5 13 mph 1021mb 64f 58f
7:54am 8 11 mph 1020.8mb 64f 58f
7:48am 10 13 mph 1020.7mb 64f 57f
7:42am 8 10 mph 1020.8mb 63f 57f
7:36am 10 14 mph 1020.7mb 63f 56f
7:30am 10 13 mph 1020.7mb 62f 56f
7:24am 10 13 mph 1020.6mb 62f 56f
7:18am 8 10 mph 1020.6mb 62f 55f
7:12am 5 7 mph 1020.7mb 62f 55f
7:06am 6 11 mph 1020.8mb 62f 55f
7:00am 2 8 mph 1020.8mb 63f 55f
6:54am 8 10 mph 1020.7mb 63f 55f
6:48am 6 8 mph 1020.8mb 64f 56f
6:42am 8 10 mph 1020.9mb 64f 56f
6:36am 8 9 mph 1020.9mb 64f 56f
6:30am 6 11 mph 1020.9mb 64f 56f
6:24am 10 11 mph 1020.8mb 64f 56f
6:18am 7 10 mph 1020.9mb 64f 56f
6:12am 9 10 mph 1020.9mb 64f 56f
6:06am 7 8 mph 1020.9mb 63f 57f
6:00am 7 11 mph 1020.9mb 64f 57f